Regional Weather Roundup
Issued by NWS Newport/Morehead, NC

Current Version | Previous Version | Graphics & Text | Print | Product List | Glossary Off
Versions: 1 2 3 4 5 6 7 8 9 10 11 12 13 14 15 16 17 18 19 20 21 22 23 24 25 26 27 28 29 30 31 32 33 34 35 36 37 38 39 40 41 42 43 44 45 46 47 48 49 50

342
ASUS42 KMHX 221913
RWRMHX
WEATHER ROUNDUP FOR EASTERN NORTH CAROLINA
NATIONAL WEATHER SERVICE NEWPORT/MOREHEAD CITY NC
300 PM EDT WED MAR 22 2017

NOTE: "FAIR" INDICATES FEW OR NO CLOUDS BELOW 12,000 FEET
WITH NO SIGNIFICANT WEATHER AND/OR OBSTRUCTIONS TO VISIBILITY

NCZ015>017-031-032-045>047-102-103-222000-
NORTH COAST

CITY           SKY/WX    TMP DP  RH WIND       PRES   REMARKS
EDENTON        SUNNY     59  22  24 N23       30.16R
ELIZABETH CITY SUNNY     53  26  35 N18G29    30.17R
KITTY HAWK     NOT AVBL
MANTEO         MOSUNNY   49  29  47 N28G36    30.18R

$$

NCZ045>047-081-094-103-104-222000-
CENTRAL COAST

CITY           SKY/WX    TMP DP  RH WIND       PRES   REMARKS
FRISCO         CLOUDY    51  33  50 N20G35    30.15R

$$

NCZ095-097-098-100-101-222000-
SOUTHERN COAST

CITY           SKY/WX    TMP DP  RH WIND       PRES   REMARKS
BEAUFORT       PTSUNNY   60  41  49 NE16G25   30.13R
CEDAR ISLAND   NOT AVBL
JACKSONVILLE   CLOUDY    61  44  53 N18       30.12R
PINEY ISLAND   CLOUDY   N/A N/A N/A NE16      30.14R
WILMINGTON     CLOUDY    65  46  50 NE14G20   30.10S


$$

NCZ011>013-027>030-043-044-078>080-089-090>093-098-222000-
COASTAL PLAIN

CITY           SKY/WX    TMP DP  RH WIND       PRES   REMARKS
AHOSKIE        NOT AVBL
CLINTON        MOSUNNY   64  44  48 N7        30.13S
ELIZABETHTOWN  MOSUNNY   66  43  42 N6        30.11S
GOLDSBORO      LGT RAIN  63  36  36 NE13G22   30.13R
GREENVILLE     SUNNY     61  28  29 N17       30.16R
HAVELOCK       CLOUDY    59  39  47 NE18      30.13R
KENANSVILLE    CLOUDY    63  45  51 NE9G16    30.13S
KINSTON        PTSUNNY   61  32  33 N12G23    30.15R
NEW BERN       CLOUDY    59  44  57 NE10      30.14R
RICHLANDS      CLOUDY    59  45  59 N15       30.13R
ROCKY MOUNT    SUNNY     61  25  25 N18G28    30.16R
WASHINGTON     MOSUNNY   59  33  38 NE17      30.14S
WHITEVILLE     PTSUNNY   68  44  42 N3        30.09F

$$

AMZ130-135-150-152-154-156-158-170-250-252-270-ANZ085-086-088-633-658-670-222000-
MARINE OBSERVATIONS

STATION/POSITION TIME  TEMP    WIND        PRES    WAVE   SWELL
                       AIR SEA DIR/SP/G            HT/PER HT/PER
                 (UTC) (F)     (DEG/KT/KT) (MB)    (FT/S) (FT/S)
CHESAPEAKE LIGHT NOT AVBL
64 E VA BEACH    1850   45 48   10/ 23/ 27 1020.8    8/ 6   2/10
DUCK             1848   45 49   10/ 28/ 34 1020.8
2 E DUCK         1900      47                N/A     7/ 6   2/11
OREGON INLET     1848          360/ 21/ 27   N/A
13E OREGON INLT  NOT AVBL
HATTERAS CG      1848   49 55   10/ 26/ 36 1020.2
DIAMOND BUOY     1850   51 73   20/ 29/ 37 1019.5   10/10
CAPE LOOKOUT     1900   54      40/ 25/ 28 1020.1
BEAUFORT LAB     1848   57 53   30/ 13/ 21 1019.2
30 SE NEW RVR IN 1808   58      50/ 21/ 27 1018.9
30 SE NEW RVR IN 1843      64                N/A     7/ 8   2/11
27 SE WRIGHTSVLE 1808   59 64   50/ 16/ 23 1018.9
5 SE WRIGHTSVLE  1808   58 57   40/ 12/ 21 1019.4
225 S CAPE HAT   1850   71 75  330/ 25/ 29 1014.1    9/ 8   7/ 8
41 SE CHARLESTON 1850   63 66   20/ 21/ 27 1017.7    4/ 4   2/11

$$




USA.gov is the U.S. government's official web portal to all federal, state and local government web resources and services.